Location: Stonelick Lake State Park
(39.2170°N, 84.0850°W)
Time: 10:07:12
(UTC-05:00)

Amateur Radio Satellites - All Passes

Search period start: 01 March 2015 09:37
Search period end: 02 March 2015 09:37
Location: Stonelick Lake State Park, 39.2170°N, 84.0850°W

Satellite Date Start Highest point End Downlink Frequencies (MHz)
Time Altitude Azimuth
ANTELSAT 01 Mar 09:48:03 09:51:54 31° 71° (ENE) 09:55:46 437.575/2403.000
QB50P1 01 Mar 09:50:33 09:53:26 18° 68° (ENE) 09:56:26 145.935-145.965
DOVE 4 01 Mar 09:51:53 09:56:12 79° 284° (WNW) 10:00:21 437.250
QB50P2 01 Mar 09:53:35 09:56:39 20° 68° (ENE) 09:59:50 145.880/145.840
FUNcube-1 01 Mar 09:54:44 09:57:42 19° 93° (E) 10:00:48 145.935
ZACube-1 01 Mar 09:55:18 09:58:20 20° 93° (E) 10:01:30 437.345
SEEDS 01 Mar 09:59:03 10:03:10 53° 285° (WNW) 10:07:18 437.485
CANX-2 01 Mar 09:59:43 10:03:42 40° 287° (WNW) 10:07:41 2200.000
UKube-1 01 Mar 10:06:16 10:09:49 25° 95° (E) 10:13:25 .
RS-15 01 Mar 10:06:41 10:17:54 60° 246° (WSW) 10:29:31 29.354- 29.394
O/OREOS (USA 219) 01 Mar 10:07:26 10:11:59 87° 111° (ESE) 10:16:35 437.305
BUGSAT 1 01 Mar 10:09:17 10:12:31 22° 69° (ENE) 10:15:50 437.445
DUCHIFAT 1 01 Mar 10:09:31 10:13:10 28° 70° (ENE) 10:16:52 145.980
UWE-3 01 Mar 10:10:04 10:13:55 36° 97° (E) 10:17:48 435.000/436.395/437.385
HUMSAT D 01 Mar 10:12:11 10:14:40 16° 92° (E) 10:17:18 437.325/437.525
CINEMA 3 01 Mar 10:12:12 10:16:25 89° 284° (WNW) 10:20:34 145.822/145.860
SO-50 01 Mar 10:16:19 10:20:05 22° 44° (NE) 10:23:57 436.795
CUTE 1.7 + AOD 2 01 Mar 10:18:52 10:22:31 27° 289° (WNW) 10:26:06 437.475
HO-68 01 Mar 10:26:20 10:33:10 47° 293° (WNW) 10:39:56 435.675
50 SAT 01 Mar 10:26:36 10:28:56 16° 92° (E) 10:31:25 437.505
POLYITAN 1 01 Mar 10:27:16 10:31:22 46° 73° (ENE) 10:35:31 437.675
POPSAT HIP 1 01 Mar 10:28:37 10:32:44 47° 73° (ENE) 10:36:53 437.405
BRITE-PL 01 Mar 10:35:39 10:38:03 14° 296° (WNW) 10:40:10 437.365/2234.400
CUBEBUG 2 01 Mar 10:43:55 10:48:03 70° 284° (WNW) 10:52:11 437.445
UNISAT 6 01 Mar 10:45:32 10:49:56 59° 259° (W) 10:54:15 437.425
GOMX 1 01 Mar 10:48:43 10:51:06 14° 295° (WNW) 10:53:15 467.674
Oscar 11 01 Mar 10:48:50 10:52:58 45° 287° (WNW) 10:57:05 145.826/435.025
DELFI C3 01 Mar 10:50:39 10:54:38 50° 286° (WNW) 10:58:35 145.870
NANOSAT C BR1 01 Mar 10:52:16 10:56:34 89° 79° (E) 11:00:53 145.865
ISS 01 Mar 10:54:28 10:57:21 29° 331° (NNW) 11:00:15 145.825
GONETS M04 01 Mar 10:59:32 11:07:25 38° 273° (W) 11:15:09
DANDE 01 Mar 11:02:22 11:02:27 10° 68° (ENE) 11:02:39 436.750
AISAT 01 Mar 11:05:53 11:10:12 49° 99° (E) 11:14:30 437.250
DX 1 01 Mar 11:10:07 11:14:26 58° 286° (WNW) 11:18:41 434.975-435.025
AAUSAT CUBESAT 2 01 Mar 11:10:16 11:12:18 13° 294° (WNW) 11:14:08 437.432
TIGRISAT 01 Mar 11:12:00 11:15:58 31° 264° (W) 11:19:50 435.000
COMPASS 1 01 Mar 11:12:14 11:13:32 11° 295° (WNW) 11:14:37 437.405
CUBEBUG 1 01 Mar 11:15:31 11:19:12 26° 95° (E) 11:22:54 437.445
VELOX 1 01 Mar 11:16:08 11:20:34 62° 101° (ESE) 11:24:56 145.980
QB50P1 01 Mar 11:25:04 11:29:05 37° 263° (W) 11:33:05 145.935-145.965
ANTELSAT 01 Mar 11:25:16 11:28:46 22° 266° (W) 11:32:08 437.575/2403.000
ESTCUBE 1 01 Mar 11:25:41 11:29:55 37° 97° (E) 11:34:10 437.505/2401.250
QB50P2 01 Mar 11:28:27 11:32:23 34° 263° (W) 11:36:17 145.880/145.840
FUNcube-1 01 Mar 11:30:28 11:34:09 30° 288° (WNW) 11:37:47 145.935
ZACube-1 01 Mar 11:31:09 11:34:48 30° 289° (WNW) 11:38:24 437.345
CUSAT 1 01 Mar 11:39:16 11:41:53 65° 80° (E) 11:44:30 437.405
UKube-1 01 Mar 11:42:14 11:45:58 27° 290° (WNW) 11:49:36 .
BUGSAT 1 01 Mar 11:44:02 11:47:51 31° 264° (W) 11:51:39 437.445
DUCHIFAT 1 01 Mar 11:45:33 11:49:02 23° 266° (W) 11:52:25 145.980
HUMSAT D 01 Mar 11:46:51 11:50:39 37° 287° (WNW) 11:54:26 437.325/437.525
UWE-3 01 Mar 11:47:30 11:50:15 17° 292° (WNW) 11:52:52 435.000/436.395/437.385
O/OREOS (USA 219) 01 Mar 11:51:05 11:52:11 11° 310° (NW) 11:53:01 437.305
SPROUT 01 Mar 11:54:40 11:57:24 17° 91° (E) 12:00:17 437.525
SO-50 01 Mar 11:56:10 12:01:00 54° 242° (WSW) 12:05:46 436.795
50 SAT 01 Mar 12:00:30 12:04:08 35° 288° (WNW) 12:07:43 437.505
TISAT 1 01 Mar 12:04:06 12:07:04 19° 93° (E) 12:10:09 437.305
POLYITAN 1 01 Mar 12:05:12 12:07:37 14° 269° (W) 12:09:49 437.675
POPSAT HIP 1 01 Mar 12:06:36 12:08:57 14° 270° (W) 12:11:06 437.405
Oscar 19 01 Mar 12:29:49 12:34:12 30° 69° (ENE) 12:38:41 437.125/150
ISS 01 Mar 12:33:50 12:34:37 11° 350° (N) 12:35:23 145.825
AISAT 01 Mar 12:43:47 12:46:27 15° 294° (WNW) 12:48:58 437.250
DANDE 01 Mar 12:44:20 12:45:48 13° 268° (W) 12:47:10 436.750
CUBEBUG 1 01 Mar 12:51:47 12:55:31 27° 291° (WNW) 12:59:11 437.445
VELOX 1 01 Mar 12:54:41 12:56:40 12° 296° (WNW) 12:58:26 145.980
ESTCUBE 1 01 Mar 13:03:11 13:06:35 20° 293° (WNW) 13:09:51 437.505/2401.250
ITUPSAT 1 01 Mar 13:09:59 13:12:49 16° 91° (E) 13:15:52 437.325
Gurwin Techsat 1B 01 Mar 13:27:36 13:31:56 27° 67° (ENE) 13:36:24 435.225
SPROUT 01 Mar 13:29:42 13:33:43 38° 288° (WNW) 13:37:40 437.525
TISAT 1 01 Mar 13:39:11 13:43:00 33° 289° (WNW) 13:46:45 437.305
ITAMSAT 1 01 Mar 14:03:04 14:08:16 78° 74° (ENE) 14:13:32 435.822/435.867
Oscar 19 01 Mar 14:08:58 14:13:31 31° 264° (W) 14:18:02 437.125/150
SWISSCUBE 01 Mar 14:10:55 14:15:46 78° 104° (ESE) 14:20:33 437.505
ISS 01 Mar 14:11:19 14:12:13 11° 11° (N) 14:13:10 145.825
HORYU 2 01 Mar 14:19:27 14:22:36 20° 67° (ENE) 14:25:51 437.375
BEESAT 01 Mar 14:19:50 14:24:40 88° 103° (ESE) 14:29:29 436.000
AO-7 01 Mar 14:33:39 14:40:39 33° 60° (ENE) 14:47:51 29.400- 29.500
ITUPSAT 1 01 Mar 14:46:24 14:51:06 51° 287° (WNW) 14:55:45 437.325
KKS-1 01 Mar 14:54:54 14:59:02 38° 97° (E) 15:03:11 437.445
STARS 01 Mar 15:04:46 15:08:39 31° 96° (E) 15:12:34 437.465
Gurwin Techsat 1B 01 Mar 15:06:53 15:11:47 37° 263° (W) 15:16:41 435.225
JAS-2 01 Mar 15:20:52 15:25:22 27° 65° (ENE) 15:30:21 435.910
ISS 01 Mar 15:46:31 15:49:27 31° 30° (NNE) 15:52:25 145.825
ITAMSAT 1 01 Mar 15:46:35 15:48:29 11° 272° (W) 15:50:02 435.822/435.867
SWISSCUBE 01 Mar 15:51:13 15:53:03 12° 297° (WNW) 15:54:37 437.505
YUBILEINY 01 Mar 15:54:07 16:01:44 37° 87° (E) 16:09:37 435.215
HORYU 2 01 Mar 15:54:56 15:59:03 36° 263° (W) 16:03:09 437.375
BEESAT 01 Mar 16:01:03 16:01:53 10° 298° (WNW) 16:02:26 436.000
M-CUBED/EXP-1 PRIME 01 Mar 16:05:51 16:08:04 14° 97° (E) 16:10:33 437.505
AUBIESAT-1 01 Mar 16:09:08 16:11:13 14° 97° (E) 16:13:36 437.475
AO-7 01 Mar 16:24:54 16:33:07 58° 258° (WSW) 16:41:17 29.400- 29.500
KKS-1 01 Mar 16:32:16 16:35:28 19° 293° (WNW) 16:38:31 437.445
STARS 01 Mar 16:41:33 16:45:00 22° 292° (WNW) 16:48:21 437.465
JAS-2 01 Mar 17:05:17 17:10:19 38° 265° (W) 17:15:48 435.910
Cubesat XI-IV 01 Mar 17:20:01 17:24:44 33° 69° (ENE) 17:29:32 437.490
ISS 01 Mar 17:23:01 17:25:50 27° 226° (SW) 17:28:38 145.825
CUTE-I 01 Mar 17:29:09 17:34:04 39° 70° (ENE) 17:39:05 437.470
MOZHAYETS 4 01 Mar 17:32:45 17:37:25 85° 281° (WNW) 17:42:03
M-CUBED/EXP-1 PRIME 01 Mar 17:39:06 17:43:13 53° 290° (WNW) 17:47:38 437.505
AUBIESAT-1 01 Mar 17:42:11 17:46:19 55° 290° (WNW) 17:50:46 437.475
YUBILEINY 01 Mar 17:50:06 17:58:26 46° 286° (WNW) 18:06:46 435.215
CUBESAT XI-V 01 Mar 17:53:40 17:54:52 11° 87° (E) 17:56:22 437.345
BEESAT 3 01 Mar 17:54:31 17:58:34 70° 120° (ESE) 18:02:43 437.485
AIST 2 01 Mar 18:09:14 18:12:58 31° 114° (ESE) 18:16:48 435.215
PHONESAT 2.4 01 Mar 18:15:19 18:18:00 20° 149° (SSE) 18:20:44 2401.200-2431.200
BEESAT 2 01 Mar 18:18:34 18:22:40 75° 302° (WNW) 18:26:51 435.950
VERMONT LUNAR 01 Mar 18:19:57 18:23:13 37° 155° (SSE) 18:26:30 437.305
O/OREOS (USA 219) 01 Mar 18:40:44 18:43:15 15° 53° (NE) 18:45:56 437.305
AIST 1 01 Mar 18:50:40 18:55:05 69° 81° (E) 18:59:27
Cubesat XI-IV 01 Mar 19:00:08 19:04:51 30° 265° (W) 19:09:32 437.490
STRAND 1 01 Mar 19:04:00 19:08:46 38° 97° (E) 19:13:33 437.568
PRISM 01 Mar 19:07:37 19:11:52 76° 102° (ESE) 19:16:05 437.425
HO-68 01 Mar 19:07:41 19:12:49 23° 60° (ENE) 19:18:13 435.675
CUTE-I 01 Mar 19:09:52 19:14:18 25° 266° (W) 19:18:39 437.470
CANX-2 01 Mar 19:19:08 19:20:02 11° 65° (ENE) 19:21:10 2200.000
DOVE 4 01 Mar 19:22:16 19:23:25 11° 64° (ENE) 19:24:51 437.250
CUBESAT XI-V 01 Mar 19:28:11 19:32:54 69° 284° (WNW) 19:37:34 437.345
BEESAT 3 01 Mar 19:35:02 19:37:13 14° 318° (NW) 19:39:15 437.485
CUTE 1.7 + AOD 2 01 Mar 19:36:16 19:38:42 16° 67° (ENE) 19:41:19 437.475
AIST 2 01 Mar 19:47:59 19:51:37 26° 311° (NW) 19:55:13 435.215
PHONESAT 2.4 01 Mar 19:52:30 19:56:08 72° 164° (SSE) 19:59:46 2401.200-2431.200
VERMONT LUNAR 01 Mar 19:57:32 20:01:02 79° 351° (N) 20:04:32 437.305
BRITE-PL 01 Mar 20:03:44 20:09:19 61° 75° (ENE) 20:14:44 437.365/2234.400
Oscar 11 01 Mar 20:09:49 20:10:48 11° 65° (ENE) 20:12:02 145.826/435.025
GOMX 1 01 Mar 20:15:00 20:20:15 53° 74° (ENE) 20:25:18 467.674
O/OREOS (USA 219) 01 Mar 20:18:38 20:23:10 59° 252° (WSW) 20:27:38 437.305
AAUSAT CUBESAT 2 01 Mar 20:23:16 20:26:52 30° 71° (ENE) 20:30:33 437.432
COMPASS 1 01 Mar 20:24:42 20:28:30 36° 73° (ENE) 20:32:21 437.405
DX 1 01 Mar 20:33:00 20:33:04 10° 63° (ENE) 20:33:23 434.975-435.025
STRAND 1 01 Mar 20:43:36 20:47:48 25° 293° (WNW) 20:51:52 437.568
SEEDS 01 Mar 20:49:55 20:54:06 89° 267° (W) 20:58:18 437.485
FUNcube-1 01 Mar 20:50:29 20:52:59 16° 67° (ENE) 20:55:37 145.935
ZACube-1 01 Mar 20:51:11 20:53:47 16° 68° (ENE) 20:56:31 437.345
CANX-2 01 Mar 20:51:19 20:55:30 65° 260° (W) 20:59:42 2200.000
HO-68 01 Mar 20:52:52 20:59:59 70° 257° (WSW) 21:07:08 435.675
DOVE 4 01 Mar 20:55:25 21:00:39 89° 254° (WSW) 21:05:39 437.250
UKube-1 01 Mar 21:00:49 21:03:54 20° 67° (ENE) 21:07:07 .
HUMSAT D 01 Mar 21:05:04 21:06:10 11° 65° (ENE) 21:07:31 437.325/437.525
UWE-3 01 Mar 21:06:26 21:10:14 29° 71° (ENE) 21:14:02 435.000/436.395/437.385
CUTE 1.7 + AOD 2 01 Mar 21:10:19 21:14:20 42° 262° (W) 21:18:22 437.475
CINEMA 3 01 Mar 21:12:18 21:17:09 75° 75° (ENE) 21:21:47 145.822/145.860
PCSat 01 Mar 21:21:58 21:27:22 83° 119° (ESE) 21:32:51 145.827
PHONESAT 2.4 01 Mar 21:31:02 21:34:39 70° 359° (N) 21:38:17 2401.200-2431.200
VERMONT LUNAR 01 Mar 21:35:34 21:39:05 77° 8° (N) 21:42:34 437.305
DELFI C3 01 Mar 21:37:19 21:41:20 84° 77° (ENE) 21:45:24 145.870
CUBEBUG 2 01 Mar 21:40:44 21:45:18 84° 80° (E) 21:49:44 437.445
Oscar 11 01 Mar 21:42:13 21:46:30 67° 259° (W) 21:50:48 145.826/435.025
BRITE-PL 01 Mar 21:44:22 21:48:13 18° 270° (W) 21:51:45 437.365/2234.400
GOMX 1 01 Mar 21:54:48 21:58:39 19° 269° (W) 22:02:12 467.674
AAUSAT CUBESAT 2 01 Mar 21:59:31 22:02:37 20° 267° (W) 22:05:36 437.432
COMPASS 1 01 Mar 22:01:39 22:04:24 16° 269° (W) 22:07:00 437.405
GONETS M04 01 Mar 22:01:53 22:10:11 54° 91° (E) 22:18:35
AISAT 01 Mar 22:02:49 22:06:59 39° 72° (ENE) 22:11:13 437.250
DX 1 01 Mar 22:04:22 22:08:45 78° 257° (WSW) 22:13:12 434.975-435.025
CUBEBUG 1 01 Mar 22:11:14 22:14:27 20° 68° (ENE) 22:17:48 437.445
VELOX 1 01 Mar 22:12:43 22:17:02 49° 73° (ENE) 22:21:23 145.980
RS-15 01 Mar 22:19:47 22:27:38 25° 104° (ESE) 22:36:00 29.354- 29.394
ESTCUBE 1 01 Mar 22:24:34 22:28:31 31° 70° (ENE) 22:32:32 437.505/2401.250
FUNcube-1 01 Mar 22:24:47 22:29:02 46° 262° (W) 22:33:11 145.935
ZACube-1 01 Mar 22:25:39 22:29:53 44° 261° (W) 22:34:01 437.345
UKube-1 01 Mar 22:35:50 22:39:51 35° 262° (W) 22:43:52 .
HUMSAT D 01 Mar 22:37:21 22:41:31 62° 259° (W) 22:45:40 437.325/437.525
UNISAT 6 01 Mar 22:38:54 22:42:37 28° 96° (E) 22:46:25 437.425
NANOSAT C BR1 01 Mar 22:39:57 22:42:24 15° 91° (E) 22:45:00 145.865
UWE-3 01 Mar 22:43:07 22:46:48 24° 265° (W) 22:50:19 435.000/436.395/437.385
50 SAT 01 Mar 22:45:40 22:49:39 70° 258° (WSW) 22:53:38 437.505
SPROUT 01 Mar 22:49:11 22:51:00 13° 65° (ENE) 22:53:02 437.525
CINEMA 3 01 Mar 22:53:57 22:54:53 10° 272° (W) 22:55:28 145.822/145.860
TISAT 1 01 Mar 22:56:34 22:58:43 14° 66° (ENE) 23:01:02 437.305
TIGRISAT 01 Mar 23:04:11 23:08:23 54° 100° (E) 23:12:38 435.000
CUSAT 1 01 Mar 23:05:51 23:08:18 13° 92° (E) 23:10:54 437.405
PCSat 01 Mar 23:08:08 23:11:34 16° 317° (NW) 23:14:51 145.827
PHONESAT 2.4 01 Mar 23:09:34 23:13:11 71° 197° (SSW) 23:16:47 2401.200-2431.200
QB50P1 01 Mar 23:11:23 23:15:16 36° 97° (E) 23:19:10 145.935-145.965
VERMONT LUNAR 01 Mar 23:13:37 23:16:54 39° 205° (SSW) 23:20:09 437.305
QB50P2 01 Mar 23:14:46 23:18:46 40° 98° (E) 23:22:45 145.880/145.840
ANTELSAT 01 Mar 23:17:07 23:21:25 80° 102° (ESE) 23:25:46 437.575/2403.000
BUGSAT 1 01 Mar 23:27:18 23:31:13 39° 98° (E) 23:35:05 437.445
DUCHIFAT 1 01 Mar 23:30:41 23:34:51 60° 100° (E) 23:39:00 145.980
AISAT 01 Mar 23:40:37 23:43:48 18° 268° (W) 23:46:52 437.250
CUBEBUG 1 01 Mar 23:46:32 23:50:38 35° 263° (W) 23:54:43 437.445
POLYITAN 1 01 Mar 23:49:39 23:53:53 78° 285° (WNW) 23:58:05 437.675
POPSAT HIP 1 01 Mar 23:50:42 23:54:56 77° 285° (WNW) 23:59:08 437.405
VELOX 1 01 Mar 23:51:21 23:53:57 15° 269° (W) 23:56:21 145.980
GONETS M04 01 Mar 23:59:52 00:07:29 32° 291° (WNW) 00:14:55
ESTCUBE 1 02 Mar 00:01:47 00:05:26 23° 266° (W) 00:09:02 437.505/2401.250
DANDE 02 Mar 00:08:43 00:15:24 44° 96° (E) 00:20:38 436.750
NANOSAT C BR1 02 Mar 00:14:31 00:18:30 40° 288° (WNW) 00:22:26 145.865
UNISAT 6 02 Mar 00:15:53 00:19:20 23° 291° (WNW) 00:22:42 437.425
ITUPSAT 1 02 Mar 00:16:13 00:19:15 18° 66° (ENE) 00:22:28 437.325
SPROUT 02 Mar 00:22:24 00:26:40 58° 260° (W) 00:30:58 437.525
RS-15 02 Mar 00:27:59 00:38:55 80° 303° (WNW) 00:50:01 29.354- 29.394
TISAT 1 02 Mar 00:29:58 00:34:09 51° 261° (W) 00:38:21 437.305
TIGRISAT 02 Mar 00:42:43 00:44:46 13° 294° (WNW) 00:46:37 435.000
CUSAT 1 02 Mar 00:44:29 00:51:10 78° 279° (W) 00:56:11 437.405
Oscar 19 02 Mar 00:45:05 00:45:50 10° 87° (E) 00:46:57 437.125/150
QB50P1 02 Mar 00:47:58 00:50:56 18° 292° (WNW) 00:53:47 145.935-145.965
PHONESAT 2.4 02 Mar 00:48:39 00:51:19 19° 212° (SSW) 00:53:55 2401.200-2431.200
QB50P2 02 Mar 00:51:38 00:54:24 17° 293° (WNW) 00:57:01 145.880/145.840
BUGSAT 1 02 Mar 01:03:46 01:06:25 16° 293° (WNW) 01:08:55 437.445
DUCHIFAT 1 02 Mar 01:08:41 01:10:16 12° 295° (WNW) 01:11:36 145.980
SWISSCUBE 02 Mar 01:16:23 01:21:09 78° 75° (ENE) 01:25:57 437.505
BEESAT 02 Mar 01:25:12 01:29:58 88° 77° (ENE) 01:34:47 436.000
Gurwin Techsat 1B 02 Mar 01:47:17 01:48:11 11° 86° (E) 01:49:29 435.225
ITUPSAT 1 02 Mar 01:52:10 01:56:48 49° 260° (W) 02:01:29 437.325
KKS-1 02 Mar 01:52:15 01:56:11 31° 70° (ENE) 02:00:10 437.445
DANDE 02 Mar 01:52:58 01:58:45 27° 285° (WNW) 02:03:18 436.750
STARS 02 Mar 02:01:07 02:04:42 25° 69° (ENE) 02:08:23 437.465
YUBILEINY 02 Mar 02:06:18 02:11:20 17° 60° (ENE) 02:16:54 435.215
SO-50 02 Mar 02:09:24 02:13:56 66° 119° (ESE) 02:18:38 436.795
BEESAT 3 02 Mar 02:15:01 02:18:43 31° 51° (NE) 02:22:24 437.485
ITAMSAT 1 02 Mar 02:17:30 02:22:02 30° 95° (E) 02:26:37 435.822/435.867
Oscar 19 02 Mar 02:20:47 02:25:56 82° 285° (WNW) 02:31:04 437.125/150
AIST 2 02 Mar 02:32:24 02:35:21 18° 45° (NE) 02:38:22 435.215
BEESAT 2 02 Mar 02:39:20 02:43:22 47° 54° (NE) 02:47:21 435.950
RS-15 02 Mar 02:44:27 02:53:26 27° 331° (NNW) 03:02:22 29.354- 29.394
M-CUBED/EXP-1 PRIME 02 Mar 02:55:45 02:56:48 11° 61° (ENE) 02:57:59 437.505
AUBIESAT-1 02 Mar 02:58:43 02:59:30 11° 61° (ENE) 03:00:28 437.475
Gurwin Techsat 1B 02 Mar 03:23:36 03:28:57 85° 287° (WNW) 03:34:17 435.225
KKS-1 02 Mar 03:29:17 03:32:53 23° 266° (W) 03:36:23 437.445
STARS 02 Mar 03:37:15 03:41:06 28° 264° (W) 03:44:54 437.465
HORYU 2 02 Mar 03:47:03 03:51:18 44° 99° (E) 03:55:34 437.375
SO-50 02 Mar 03:51:48 03:55:00 18° 318° (NW) 03:58:09 436.795
BEESAT 3 02 Mar 03:53:23 03:56:42 23° 247° (WSW) 03:59:53 437.485
ITAMSAT 1 02 Mar 03:56:55 04:01:32 32° 292° (WNW) 04:06:03 435.822/435.867
YUBILEINY 02 Mar 04:00:54 04:09:48 85° 83° (E) 04:18:39 435.215
AIST 2 02 Mar 04:10:08 04:14:16 49° 243° (WSW) 04:18:19 435.215
JAS-2 02 Mar 04:13:38 04:20:17 35° 94° (E) 04:27:21 435.910
BEESAT 2 02 Mar 04:18:46 04:21:12 15° 250° (WSW) 04:23:27 435.950
AO-7 02 Mar 04:27:32 04:35:36 53° 101° (ESE) 04:43:39 29.400- 29.500
M-CUBED/EXP-1 PRIME 02 Mar 04:28:22 04:31:27 37° 257° (WSW) 04:34:37 437.505
AUBIESAT-1 02 Mar 04:30:58 04:34:05 39° 257° (WSW) 04:37:17 437.475
MOZHAYETS 4 02 Mar 04:33:31 04:38:04 79° 76° (ENE) 04:42:39
JUGNU 02 Mar 04:41:36 04:43:10 11° 181° (S) 04:44:44 437.505
CUBESAT XI-V 02 Mar 04:57:09 04:58:06 11° 63° (ENE) 04:59:18 437.345
RS-15 02 Mar 05:04:17 05:11:12 18° 6° (N) 05:18:22 29.354- 29.394
Gurwin Techsat 1B 02 Mar 05:06:44 05:08:13 11° 300° (WNW) 05:09:24 435.225
HORYU 2 02 Mar 05:24:44 05:27:40 17° 294° (WNW) 05:30:27 437.375
Cubesat XI-IV 02 Mar 05:39:51 05:42:20 14° 88° (E) 05:45:08 437.490
CUTE-I 02 Mar 05:48:27 05:51:41 17° 90° (E) 05:55:09 437.470
PRISM 02 Mar 05:57:00 06:00:57 47° 73° (ENE) 06:04:59 437.425
JAS-2 02 Mar 05:58:22 06:05:27 49° 290° (WNW) 06:12:52 435.910
YUBILEINY 02 Mar 05:59:53 06:05:39 18° 280° (W) 06:10:54 435.215
PCSat 02 Mar 06:11:02 06:16:21 52° 57° (ENE) 06:21:38 145.827
STRAND 1 02 Mar 06:18:44 06:23:39 49° 72° (ENE) 06:28:39 437.568
AO-7 02 Mar 06:20:49 06:28:08 35° 299° (WNW) 06:35:15 29.400- 29.500
SRMSAT 02 Mar 06:30:09 06:31:44 11° 182° (S) 06:33:18 437.500
CUBESAT XI-V 02 Mar 06:30:16 06:34:57 81° 258° (WSW) 06:39:42 437.345
Cubesat XI-IV 02 Mar 07:17:42 07:23:04 70° 286° (WNW) 07:28:23 437.490
RS-15 02 Mar 07:18:16 07:28:22 36° 38° (NE) 07:39:02 29.354- 29.394
AIST 1 02 Mar 07:19:04 07:23:09 42° 93° (E) 07:27:20
CUTE-I 02 Mar 07:26:57 07:32:14 58° 287° (WNW) 07:37:28 437.470
PRISM 02 Mar 07:34:44 07:36:48 13° 270° (W) 07:38:39 437.425
PCSat 02 Mar 07:55:26 07:59:26 20° 253° (WSW) 08:03:13 145.827
STRAND 1 02 Mar 07:59:35 08:03:12 19° 269° (W) 08:06:39 437.568
BRITE-PL 02 Mar 08:11:49 08:14:46 17° 90° (E) 08:17:44 437.365/2234.400
GONETS M04 02 Mar 08:13:55 08:20:38 25° 66° (ENE) 08:27:40
GOMX 1 02 Mar 08:20:26 08:22:27 13° 88° (E) 08:24:40 467.674
HO-68 02 Mar 08:22:38 08:28:06 24° 92° (E) 08:33:49 435.675
ISS 02 Mar 08:26:15 08:28:07 15° 131° (SE) 08:30:04 145.825
SEEDS 02 Mar 08:36:42 08:39:20 16° 91° (E) 08:42:06 437.485
CANX-2 02 Mar 08:38:23 08:41:44 23° 94° (E) 08:45:10 2200.000
O/OREOS (USA 219) 02 Mar 08:51:59 08:54:58 18° 101° (ESE) 08:58:08 437.305
CUTE 1.7 + AOD 2 02 Mar 08:56:42 09:00:34 33° 97° (E) 09:04:26 437.475
DOVE 4 02 Mar 08:57:01 09:00:23 23° 93° (E) 09:03:46 437.250
AIST 1 02 Mar 08:58:28 09:01:08 15° 290° (WNW) 09:03:39
CINEMA 3 02 Mar 09:09:52 09:12:29 17° 92° (E) 09:15:14 145.822/145.860
DELFI C3 02 Mar 09:20:13 09:21:57 13° 90° (E) 09:23:53 145.870
NANOSAT C BR1 02 Mar 09:33:15 09:34:33 11° 65° (ENE) 09:36:05 145.865
